Location: Obersdorf
(47.4079°N, 10.2781°E)
Time: 08:17:44
(UTC+02:00)

Envisat - Pass Details

Date: 29 September 2021
Orbit: 764 x 766 km, 98.2° (Epoch: 24 October)

Event Time Altitude Azimuth Distance (km) Brightness Sun altitude
Rises 05:08:23 0° 30° (NNE) 3,242 7.0 -21.8°
Reaches altitude 10° 05:11:44 10° 53° (NE) 2,309 6.5 -21.3°
Maximum altitude 05:14:38 15° 88° (E) 1,966 6.0 -20.9°
Drops below altitude 10° 05:17:32 10° 123° (ESE) 2,299 5.9 -20.4°
Sets 05:20:50 0° 146° (SE) 3,218 6.4 -19.9°
